Union County Emergency Managemen FL US WEATHERSTEM current weather conditions

sailwx.info

Wind from 011 at 2 knots gusting 3

Air temperature 15.6° C
Dewpoint 5.5° C

Last reported at 2020-Jan-28 23:00 UTC.
Time now 2020-Jan-29 00:07 UTC

Location: N 30°01' W 082°20'.
View on Google Maps.

See reports from other nearby stations

  
Tides and Currents Weather Stations Pressure Air Temp Water Temp Dewpoint Dewpoint Depression Visibility Wind Speed Wind Dir Waves Ship Positions
date/time (UTC)wind fromknots sea level pressurealtimeterstation pressurevisibilityair tempwater tempwave heightnotes
2020-Jan-28 23:00 011 2 gusting 3 15.6
2020-Jan-28 22:50 333 0 gusting 4 16.1
2020-Jan-28 22:40 019 2 gusting 6 16.6
2020-Jan-28 22:30 355 5 gusting 6 16.6
2020-Jan-28 22:20 330 3 gusting 7 16.8
2020-Jan-28 22:10 320 1 gusting 8 17.1
2020-Jan-28 22:00 311 2 gusting 6 17.1
2020-Jan-28 21:50 010 4 gusting 8 17.3
2020-Jan-28 21:40 014 7 gusting 9 17.3
2020-Jan-28 21:30 009 6 gusting 10 17.4
2020-Jan-28 21:20 011 6 gusting 9 17.5
2020-Jan-28 21:10 071 3 gusting 7 17.4
2020-Jan-28 21:00 044 3 gusting 9 17.6
2020-Jan-28 20:50 355 4 gusting 10 17.4
2020-Jan-28 20:40 032 8 gusting 9 17.5
2020-Jan-28 20:30 011 6 gusting 10 17.4
2020-Jan-28 20:20 057 1 gusting 10 17.6
2020-Jan-28 20:10 349 4 gusting 10 17.4
2020-Jan-28 19:50 010 2 gusting 9 17.6
2020-Jan-28 19:40 031 3 gusting 9 17.4
2020-Jan-28 19:30 318 6 gusting 11 17.3
2020-Jan-28 19:20 344 2 gusting 9 17.1
2020-Jan-28 19:10 052 2 gusting 10 17.1
2020-Jan-28 19:00 051 5 gusting 9 17.1
2020-Jan-28 18:50 319 4 gusting 10 16.9
2020-Jan-28 18:40 065 8 gusting 8 16.7
2020-Jan-28 18:30 015 4 gusting 10 16.7
2020-Jan-28 18:20 355 3 gusting 6 16.5
2020-Jan-28 18:10 304 3 gusting 8 16.4
2020-Jan-28 17:50 355 5 gusting 9 16.2
2020-Jan-28 17:40 009 6 gusting 11 15.8
2020-Jan-28 17:30 309 6 gusting 8 16.0
2020-Jan-28 17:20 036 3 gusting 8 15.6
2020-Jan-28 17:00 012 6 gusting 9 14.9
2020-Jan-28 16:50 012 6 gusting 11 15.1
2020-Jan-28 16:40 067 6 gusting 10 14.2
2020-Jan-28 16:30 360 9 gusting 11 14.1
2020-Jan-28 16:20 012 7 gusting 11 14.1
2020-Jan-28 16:10 009 9 gusting 10 13.7
2020-Jan-28 16:00 009 4 gusting 10 13.4
2020-Jan-28 15:40 005 8 gusting 9 12.4
2020-Jan-28 15:30 045 7 gusting 9 12.3
2020-Jan-28 15:20 035 6 gusting 9 12.2
2020-Jan-28 15:10 005 6 gusting 11 11.3
2020-Jan-28 15:00 343 5 gusting 10 11.3
2020-Jan-28 14:50 027 9 gusting 11 10.6
2020-Jan-28 14:40 026 4 gusting 9 9.9
2020-Jan-28 14:30 029 5 gusting 10 10.0
2020-Jan-28 14:20 355 6 gusting 11 9.5
2020-Jan-28 14:10 329 5 gusting 8 9.5
2020-Jan-28 14:00 005 6 gusting 8 8.9
2020-Jan-28 13:50 027 4 gusting 8 8.6
2020-Jan-28 13:40 328 1 gusting 5 8.0
2020-Jan-28 13:30 325 0 gusting 6 7.5
2020-Jan-28 13:20 312 3 gusting 5 7.4
2020-Jan-28 13:10 337 2 gusting 4 7.2
2020-Jan-28 13:00 335 0 gusting 2 7.1
2020-Jan-28 12:50 7.0
2020-Jan-28 12:40 6.9
2020-Jan-28 12:30 6.9
2020-Jan-28 12:20 6.8
2020-Jan-28 12:10 334 0 gusting 3 7.2
2020-Jan-28 12:00 335 1 gusting 4 7.2
2020-Jan-28 11:50 344 3 gusting 5 7.3
2020-Jan-28 11:40 341 2 gusting 5 7.3
2020-Jan-28 11:30 360 2 gusting 5 7.4
2020-Jan-28 11:20 337 1 gusting 5 7.6
2020-Jan-28 11:10 349 3 gusting 7 7.8
2020-Jan-28 10:50 348 3 gusting 4 7.9
2020-Jan-28 10:40 339 1 gusting 4 7.9
2020-Jan-28 10:30 340 1 gusting 3 7.9
2020-Jan-28 10:20 348 1 gusting 5 8.1
2020-Jan-28 10:10 332 3 gusting 4 8.1
2020-Jan-28 09:50 340 2 gusting 4 8.1
2020-Jan-28 09:40 342 1 gusting 4 8.0
2020-Jan-28 09:30 355 2 gusting 3 7.8
2020-Jan-28 09:20 329 2 gusting 2 7.8
2020-Jan-28 09:10 7.6
2020-Jan-28 08:50 7.3
2020-Jan-28 08:40 7.4
2020-Jan-28 08:20 7.7
2020-Jan-28 08:10 7.7
2020-Jan-28 07:50 8.6
2020-Jan-28 07:40 8.7
2020-Jan-28 07:30 9.0
2020-Jan-28 07:20 9.2
2020-Jan-28 07:10 9.4
2020-Jan-28 06:50 9.2
2020-Jan-28 06:40 9.3
2020-Jan-28 06:30 9.9
2020-Jan-28 06:20 10.2
2020-Jan-28 06:10 10.3
2020-Jan-28 05:50 10.3
2020-Jan-28 05:40 10.4
2020-Jan-28 05:30 10.7
2020-Jan-28 05:20 11.0
2020-Jan-28 05:10 11.3
2020-Jan-28 04:50 11.7
2020-Jan-28 04:40 11.9
2020-Jan-28 04:30 346 5 gusting 7 12.2
2020-Jan-28 04:20 328 2 gusting 7 12.2
2020-Jan-28 04:10 327 3 gusting 7 12.3
2020-Jan-28 03:50 347 2 gusting 5 12.4
2020-Jan-28 03:40 346 2 gusting 4 12.5
2020-Jan-28 03:30 339 2 gusting 3 12.6
2020-Jan-28 03:20 341 1 gusting 4 12.8
2020-Jan-28 03:10 323 2 gusting 5 13.0
2020-Jan-28 02:50 338 2 gusting 3 13.3
2020-Jan-28 02:30 339 1 gusting 3 13.6
2020-Jan-28 02:20 328 1 gusting 2 13.8
2020-Jan-28 02:10 328 1 gusting 2 13.9
2020-Jan-28 01:50 14.1
2020-Jan-28 01:40 14.3
2020-Jan-28 01:30 14.4
2020-Jan-28 01:20 14.8
2020-Jan-28 01:10 15.0
2020-Jan-28 00:50 15.2
2020-Jan-28 00:40 15.4
2020-Jan-28 00:30 15.6
2020-Jan-28 00:20 15.7
2020-Jan-28 00:10 15.9
2020-Jan-27 23:50 16.2
2020-Jan-27 23:40 16.2
2020-Jan-27 23:30 244 0 gusting 2 16.3
2020-Jan-27 23:20 16.4
2020-Jan-27 23:00 232 2 gusting 2 16.7
2020-Jan-27 22:50 16.7
2020-Jan-27 22:40 16.9
2020-Jan-27 22:30 16.9
2020-Jan-27 22:20 227 1 gusting 5 17.0
2020-Jan-27 22:10 17.1
2020-Jan-27 22:00 296 1 gusting 3 17.1
2020-Jan-27 21:50 259 2 gusting 3 17.1
2020-Jan-27 21:40 17.2
2020-Jan-27 21:30 314 2 gusting 6 17.3
2020-Jan-27 21:20 219 2 gusting 6 17.4
2020-Jan-27 21:10 254 3 gusting 6 17.3
2020-Jan-27 21:00 225 1 gusting 4 17.6
2020-Jan-27 20:50 241 2 gusting 4 17.7
2020-Jan-27 20:40 250 1 gusting 4 17.6
2020-Jan-27 20:30 268 2 gusting 5 17.6
2020-Jan-27 20:20 305 2 gusting 3 17.6
2020-Jan-27 20:10 227 2 gusting 9 17.4
2020-Jan-27 20:00 232 1 gusting 4 17.5
2020-Jan-27 19:50 237 0 gusting 4 17.4
2020-Jan-27 19:40 225 3 gusting 7 17.4
2020-Jan-27 19:30 279 2 gusting 4 17.8
2020-Jan-27 19:20 297 1 gusting 6 17.6
2020-Jan-27 19:10 219 1 gusting 6 17.4
2020-Jan-27 19:00 240 3 gusting 6 17.5
2020-Jan-27 18:50 236 2 gusting 4 17.6
2020-Jan-27 18:40 232 1 gusting 6 17.2
2020-Jan-27 18:30 226 3 gusting 6 17.3
2020-Jan-27 18:20 218 2 gusting 5 17.2
2020-Jan-27 18:10 209 4 gusting 4 17.3
2020-Jan-27 18:00 211 3 gusting 6 17.2
2020-Jan-27 17:50 193 0 gusting 6 17.1
2020-Jan-27 17:40 157 1 gusting 6 17.1
2020-Jan-27 17:30 222 4 gusting 6 16.8
2020-Jan-27 17:20 223 4 gusting 6 16.9
2020-Jan-27 17:10 220 3 gusting 6 16.8
2020-Jan-27 17:00 148 3 gusting 8 16.7
2020-Jan-27 16:50 155 2 gusting 7 16.7
2020-Jan-27 16:40 194 3 gusting 8 16.2
2020-Jan-27 16:30 148 2 gusting 6 15.9
2020-Jan-27 16:20 109 3 gusting 6 15.9
2020-Jan-27 16:10 105 2 gusting 5 15.1
2020-Jan-27 16:00 119 3 gusting 7 14.3
2020-Jan-27 15:50 080 2 gusting 6 13.9
2020-Jan-27 15:40 127 3 gusting 6 13.6
2020-Jan-27 15:30 079 0 gusting 4 13.2
2020-Jan-27 15:20 12.9
2020-Jan-27 15:10 12.7
2020-Jan-27 15:00 077 1 gusting 5 12.4
2020-Jan-27 14:50 109 2 gusting 6 12.3
2020-Jan-27 14:40 032 1 gusting 4 12.3
2020-Jan-27 14:30 055 1 gusting 3 11.9
2020-Jan-27 14:20 057 1 gusting 5 11.8
2020-Jan-27 14:10 063 2 gusting 5 11.4
2020-Jan-27 14:00 084 2 gusting 3 11.2
2020-Jan-27 13:50 11.1
2020-Jan-27 13:40 027 1 gusting 3 11.1
2020-Jan-27 13:30 057 1 gusting 3 10.8
2020-Jan-27 13:20 065 3 gusting 3 10.9
2020-Jan-27 13:10 044 1 gusting 4 10.7
2020-Jan-27 13:00 038 2 gusting 4 10.8
2020-Jan-27 12:50 013 0 gusting 5 10.9
2020-Jan-27 12:40 016 2 gusting 5 11.1
2020-Jan-27 12:30 027 2 gusting 5 11.0
2020-Jan-27 12:20 019 3 gusting 5 10.9
2020-Jan-27 12:10 10.8
2020-Jan-27 12:00 10.9
2020-Jan-27 11:50 038 1 gusting 1 11.0
2020-Jan-27 11:40 11.1
2020-Jan-27 11:30 10.9
2020-Jan-27 11:10 11.0
2020-Jan-27 11:00 023 4 gusting 4 11.2
2020-Jan-27 10:50 030 0 gusting 4 11.1
2020-Jan-27 10:40 005 2 gusting 5 11.2
2020-Jan-27 10:30 005 3 gusting 4 11.5
2020-Jan-27 10:20 019 2 gusting 5 11.4
2020-Jan-27 10:10 005 2 gusting 4 11.6
2020-Jan-27 10:00 023 2 gusting 3 11.6
2020-Jan-27 09:50 115 0 gusting 3 11.6
2020-Jan-27 09:40 11.7
2020-Jan-27 09:30 11.8
2020-Jan-27 09:20 117 1 gusting 1 11.7
2020-Jan-27 09:10 117 0 gusting 0 11.6
2020-Jan-27 09:00 11.7
2020-Jan-27 08:50 11.5
2020-Jan-27 08:40 11.4
2020-Jan-27 08:30 11.6
2020-Jan-27 08:20 11.6
2020-Jan-27 08:10 11.5
2020-Jan-27 08:00 11.6
2020-Jan-27 07:50 117 1 gusting 2 11.6
2020-Jan-27 07:40 117 2 gusting 3 11.6
2020-Jan-27 07:20 076 1 gusting 3 11.6
2020-Jan-27 07:10 079 0 gusting 2 11.7
2020-Jan-27 07:00 11.7
2020-Jan-27 06:50 079 1 gusting 3 11.8
2020-Jan-27 06:40 042 1 gusting 2 12.0
2020-Jan-27 06:30 042 1 gusting 3 12.2
2020-Jan-27 06:20 355 1 gusting 4 12.2
2020-Jan-27 06:10 12.2
2020-Jan-27 05:50 331 2 gusting 4 12.1
2020-Jan-27 05:40 325 3 gusting 3 12.2
2020-Jan-27 05:30 12.3
2020-Jan-27 05:20 12.3
2020-Jan-27 05:10 12.2
2020-Jan-27 04:50 11.8
2020-Jan-27 04:40 308 2 gusting 2 12.0
2020-Jan-27 04:30 12.1
2020-Jan-27 04:20 12.1
2020-Jan-27 04:10 12.2
2020-Jan-27 04:00 12.6
2020-Jan-27 03:40 13.0
2020-Jan-27 03:30 13.1
2020-Jan-27 03:20 13.4
2020-Jan-27 03:10 13.6
2020-Jan-27 03:00 13.7
2020-Jan-27 02:50 13.7
2020-Jan-27 02:40 13.9
2020-Jan-27 02:30 14.0
2020-Jan-27 02:10 13.9
2020-Jan-27 02:00 14.0
2020-Jan-27 01:40 14.1
2020-Jan-27 01:30 14.2
2020-Jan-27 01:20 14.3
2020-Jan-27 01:10 14.3
2020-Jan-27 01:00 010 1 gusting 1 12.2
2020-Jan-27 00:50 140 0 gusting 0 12.2
2020-Jan-27 00:30 15.1
2020-Jan-27 00:20 15.1
2020-Jan-27 00:10 15.1
2020-Jan-27 00:00 15.0